AFR37U KIAD-LFPG

Flight info

Callsign AFR37U
Flight time N/A
Altitude 35000
Route JCOBY4 SWANN DCT BROSS Q419 RBV Q22 FOXWD DCT WITCH DCT ALLEX DCT JIGGS DCT ALLRY/M083F360 NATY XETBO/M083F370 DCT ARKIL/N0476F370 DCT ANNET UM25 INGOR/N0442F280 UM25 LUKIP LUKIP9E
Aircraft B77W/H-SDE1E2E3FGHIJ2J3J4J5M1RWXY/LB1D1

Departure

Time 2026-05-07 00:27
Airport Washington Dulles International Airport (KIAD)

Arrival

Time N/A
Airport Charles de Gaulle International Airport (LFPG)
Time Latitude Longitude Altitude Speed Heading
2026-05-06 23:56 38.94816 -77.44741 297 ft 0 kts 11°
2026-05-07 00:15 38.94805 -77.44744 300 ft 3 kts
2026-05-07 00:15 38.94785 -77.44746 301 ft 3 kts 357°
2026-05-07 00:15 38.94766 -77.44743 301 ft 3 kts 344°
2026-05-07 00:15 38.94749 -77.44735 300 ft 3 kts 327°
2026-05-07 00:16 38.94735 -77.44722 300 ft 3 kts 304°
2026-05-07 00:16 38.94728 -77.44705 301 ft 3 kts 276°
2026-05-07 00:16 38.94728 -77.44696 301 ft 0 kts 266°
2026-05-07 00:19 38.94727 -77.44710 301 ft 4 kts 268°
2026-05-07 00:19 38.94728 -77.44760 301 ft 8 kts 272°
2026-05-07 00:19 38.94731 -77.44871 297 ft 17 kts 272°
2026-05-07 00:20 38.94730 -77.45057 297 ft 24 kts 270°
2026-05-07 00:20 38.94733 -77.45285 297 ft 26 kts 270°
2026-05-07 00:20 38.94734 -77.45461 297 ft 6 kts 270°
2026-05-07 00:20 38.94734 -77.45530 297 ft 9 kts 270°
2026-05-07 00:21 38.94727 -77.45582 299 ft 2 kts 239°
2026-05-07 00:21 38.94671 -77.45608 301 ft 13 kts 183°
2026-05-07 00:21 38.94569 -77.45611 300 ft 16 kts 181°
2026-05-07 00:21 38.94450 -77.45613 300 ft 18 kts 179°
2026-05-07 00:22 38.94317 -77.45612 300 ft 20 kts 181°
2026-05-07 00:22 38.94170 -77.45615 300 ft 22 kts 181°
2026-05-07 00:22 38.94009 -77.45618 299 ft 24 kts 181°
2026-05-07 00:22 38.93846 -77.45618 300 ft 22 kts 180°
2026-05-07 00:23 38.93726 -77.45613 300 ft 13 kts 162°
2026-05-07 00:23 38.93649 -77.45530 300 ft 16 kts 132°
2026-05-07 00:23 38.93621 -77.45505 298 ft 2 kts 177°
2026-05-07 00:23 38.93593 -77.45507 300 ft 6 kts 182°
2026-05-07 00:24 38.93542 -77.45520 299 ft 9 kts 198°
2026-05-07 00:24 38.93479 -77.45548 300 ft 7 kts 201°
2026-05-07 00:24 38.93463 -77.45556 299 ft 0 kts 201°
2026-05-07 00:25 38.93456 -77.45559 299 ft 4 kts 201°
2026-05-07 00:25 38.93395 -77.45589 299 ft 7 kts 202°
2026-05-07 00:25 38.93371 -77.45619 299 ft 3 kts 253°
2026-05-07 00:25 38.93378 -77.45650 301 ft 10 kts 295°
2026-05-07 00:26 38.93424 -77.45794 299 ft 29 kts 288°
2026-05-07 00:26 38.93560 -77.46262 303 ft 91 kts 291°
2026-05-07 00:26 38.93868 -77.47313 308 ft 159 kts 290°
2026-05-07 00:26 38.94313 -77.48840 539 ft 191 kts 290°
2026-05-07 00:27 38.94772 -77.50412 1325 ft 185 kts 294°
2026-05-07 00:27 38.95558 -77.51660 1886 ft 192 kts 330°
2026-05-07 00:27 38.96940 -77.51895 2075 ft 209 kts 13°
2026-05-07 00:27 38.97409 -77.51684 2321 ft 208 kts 22°
2026-05-07 00:28 38.97494 -77.51632 2370 ft 207 kts 24°
2026-05-07 00:28 38.97648 -77.51529 2468 ft 205 kts 26°
2026-05-07 00:28 38.98099 -77.51179 2778 ft 196 kts 25°
2026-05-07 00:28 38.99381 -77.50661 3229 ft 197 kts
2026-05-07 00:29 39.00809 -77.50533 3373 ft 215 kts 352°
2026-05-07 00:29 39.02325 -77.50791 3626 ft 230 kts 348°
2026-05-07 00:30 39.07217 -77.51308 3724 ft 237 kts
2026-05-07 00:30 39.08801 -77.50615 4317 ft 247 kts 23°
2026-05-07 00:30 39.10320 -77.49433 4522 ft 265 kts 28°
2026-05-07 00:30 39.11980 -77.48345 4276 ft 271 kts 27°
2026-05-07 00:31 39.13534 -77.46830 3453 ft 291 kts 44°
2026-05-07 00:31 39.14631 -77.44789 3650 ft 267 kts 64°
2026-05-07 00:31 39.15089 -77.42557 3806 ft 255 kts 90°
2026-05-07 00:31 39.15047 -77.40266 4302 ft 258 kts 92°
2026-05-07 00:32 39.15012 -77.37911 4786 ft 269 kts 92°
2026-05-07 00:32 39.15016 -77.35411 4827 ft 290 kts 91°
2026-05-07 00:32 39.15026 -77.32795 4607 ft 290 kts 91°
2026-05-07 00:32 39.15048 -77.30243 4644 ft 281 kts 86°
2026-05-07 00:33 39.15449 -77.27762 4871 ft 287 kts 72°
2026-05-07 00:33 39.15823 -77.25283 5170 ft 295 kts 96°
2026-05-07 00:33 39.15226 -77.22797 5715 ft 290 kts 123°
2026-05-07 00:33 39.14316 -77.20457 6174 ft 299 kts 114°
2026-05-07 00:34 39.13723 -77.17882 6771 ft 305 kts 107°
2026-05-07 00:34 39.13256 -77.15172 7451 ft 307 kts 105°
2026-05-07 00:34 39.12835 -77.12454 8090 ft 312 kts 104°
2026-05-07 00:34 39.12414 -77.09724 8723 ft 316 kts 104°
2026-05-07 00:35 39.11976 -77.06913 9378 ft 320 kts 105°
2026-05-07 00:35 39.11527 -77.04080 9994 ft 323 kts 105°
2026-05-07 00:35 39.11067 -77.01211 10481 ft 333 kts 104°
2026-05-07 00:35 39.10726 -76.98203 10935 ft 349 kts 97°
2026-05-07 00:36 39.10658 -76.95002 11097 ft 374 kts 90°
2026-05-07 00:36 39.10750 -76.91546 11278 ft 398 kts 89°
2026-05-07 00:36 39.10889 -76.87895 11597 ft 417 kts 88°
2026-05-07 00:36 39.11032 -76.84077 12221 ft 427 kts 89°
2026-05-07 00:37 39.11158 -76.80225 12957 ft 434 kts 89°
2026-05-07 00:37 39.11269 -76.76318 13758 ft 439 kts 89°
2026-05-07 00:37 39.11369 -76.72421 14456 ft 444 kts 89°
2026-05-07 00:37 39.11467 -76.68361 15155 ft 451 kts 89°
2026-05-07 00:38 39.11561 -76.64348 15786 ft 458 kts 89°
2026-05-07 00:38 39.11656 -76.60227 16455 ft 464 kts 89°
2026-05-07 00:38 39.11752 -76.56036 17125 ft 471 kts 89°
2026-05-07 00:38 39.11875 -76.51796 17788 ft 477 kts 86°
2026-05-07 00:39 39.12237 -76.47529 18405 ft 483 kts 80°
2026-05-07 00:39 39.12774 -76.43260 18932 ft 488 kts 79°
2026-05-07 00:39 39.13320 -76.38921 19022 ft 494 kts 80°
2026-05-07 00:39 39.13841 -76.34558 19017 ft 491 kts 80°
2026-05-07 00:40 39.14334 -76.30218 19021 ft 489 kts 81°
2026-05-07 00:40 39.14817 -76.25880 19022 ft 489 kts 81°
2026-05-07 00:40 39.15299 -76.21544 19031 ft 489 kts 81°
2026-05-07 00:40 39.15791 -76.17209 19027 ft 490 kts 81°
2026-05-07 00:41 39.16293 -76.12845 19317 ft 495 kts 81°
2026-05-07 00:41 39.16802 -76.08427 19923 ft 500 kts 80°
2026-05-07 00:41 39.17307 -76.04001 20489 ft 505 kts 81°
2026-05-07 00:41 39.17821 -75.99481 20989 ft 512 kts 80°
2026-05-07 00:42 39.18351 -75.94921 21465 ft 514 kts 78°
2026-05-07 00:42 39.19314 -75.90473 21739 ft 518 kts 63°
2026-05-07 00:42 39.21090 -75.86464 22223 ft 513 kts 47°
2026-05-07 00:42 39.23428 -75.83046 22811 ft 505 kts 34°
2026-05-07 00:43 39.26081 -75.80210 23223 ft 503 kts 30°
2026-05-07 00:43 39.28830 -75.77361 23594 ft 511 kts 31°
2026-05-07 00:43 39.31527 -75.74486 24046 ft 516 kts 31°
2026-05-07 00:43 39.34274 -75.71494 24547 ft 519 kts 32°
2026-05-07 00:44 39.37033 -75.68455 25017 ft 522 kts 32°
2026-05-07 00:44 39.39803 -75.65393 25454 ft 526 kts 32°
2026-05-07 00:44 39.42600 -75.62309 25870 ft 531 kts 31°
2026-05-07 00:44 39.45354 -75.59276 26279 ft 534 kts 31°
2026-05-07 00:45 39.47915 -75.56464 26647 ft 537 kts 31°
2026-05-07 00:45 39.50769 -75.53330 27083 ft 541 kts 31°
2026-05-07 00:45 39.53642 -75.50170 27506 ft 544 kts 31°
2026-05-07 00:45 39.56535 -75.46981 27881 ft 548 kts 31°
2026-05-07 00:46 39.59444 -75.43769 28253 ft 551 kts 31°
2026-05-07 00:46 39.62367 -75.40540 28611 ft 554 kts 31°
2026-05-07 00:46 39.65308 -75.37292 28953 ft 557 kts 31°
2026-05-07 00:46 39.68270 -75.34017 29362 ft 559 kts 31°
2026-05-07 00:47 39.71230 -75.30737 29856 ft 558 kts 31°
2026-05-07 00:47 39.74178 -75.27467 30295 ft 557 kts 31°
2026-05-07 00:47 39.77119 -75.24201 30707 ft 557 kts 31°
2026-05-07 00:47 39.80001 -75.20792 31096 ft 564 kts 36°
2026-05-07 00:48 39.82659 -75.16988 31456 ft 572 kts 41°
2026-05-07 00:48 39.85217 -75.13029 31838 ft 572 kts 41°
2026-05-07 00:48 39.87787 -75.09073 32201 ft 571 kts 40°
2026-05-07 00:48 39.90371 -75.05162 32557 ft 570 kts 39°
2026-05-07 00:49 39.92979 -75.01264 32920 ft 569 kts 39°
2026-05-07 00:49 39.95579 -74.97380 33287 ft 569 kts 39°
2026-05-07 00:49 39.98086 -74.93347 33621 ft 577 kts 45°
2026-05-07 00:49 40.00325 -74.89029 33919 ft 582 kts 48°
2026-05-07 00:50 40.02523 -74.84581 34200 ft 582 kts 49°
2026-05-07 00:50 40.04707 -74.80160 34507 ft 580 kts 48°
2026-05-07 00:50 40.06913 -74.75746 34771 ft 580 kts 47°
2026-05-07 00:50 40.09145 -74.71335 34824 ft 583 kts 47°
2026-05-07 00:51 40.13623 -74.62526 34840 ft 580 kts 47°
2026-05-07 00:51 40.17832 -74.54319 34850 ft 571 kts 44°
2026-05-07 00:52 40.22973 -74.46604 34865 ft 554 kts 33°
2026-05-07 00:52 40.25819 -74.43278 34865 ft 543 kts 26°
2026-05-07 00:52 40.28778 -74.40217 34873 ft 542 kts 26°
2026-05-07 00:53 40.34692 -74.34034 34873 ft 545 kts 26°
2026-05-07 00:53 40.39587 -74.28810 34875 ft 547 kts 27°
2026-05-07 00:54 40.42555 -74.25618 34871 ft 547 kts 27°
2026-05-07 00:54 40.47903 -74.19861 34854 ft 547 kts 27°
2026-05-07 00:55 40.53395 -74.13947 34839 ft 547 kts 27°
2026-05-07 00:55 40.59266 -74.07619 34851 ft 546 kts 27°
2026-05-07 00:56 40.65056 -74.01369 34871 ft 545 kts 27°
2026-05-07 00:56 40.70923 -73.95019 34867 ft 545 kts 27°
2026-05-07 00:57 40.76768 -73.88677 34851 ft 544 kts 28°
2026-05-07 00:57 40.82456 -73.82489 34852 ft 544 kts 28°
2026-05-07 00:58 40.87896 -73.75360 34853 ft 561 kts 41°
2026-05-07 00:58 40.92496 -73.66879 34846 ft 569 kts 47°
2026-05-07 00:59 40.99195 -73.53928 34843 ft 568 kts 47°
2026-05-07 01:00 41.03712 -73.45341 34840 ft 568 kts 46°
2026-05-07 01:00 41.08227 -73.36768 34859 ft 568 kts 47°
2026-05-07 01:01 41.12742 -73.28156 34851 ft 568 kts 47°
2026-05-07 01:01 41.17239 -73.19546 34853 ft 569 kts 47°
2026-05-07 01:02 41.21723 -73.10936 34860 ft 570 kts 47°
2026-05-07 01:02 41.26260 -73.02199 34858 ft 571 kts 47°
2026-05-07 01:03 41.30669 -72.93380 34847 ft 576 kts 51°
2026-05-07 01:03 41.34746 -72.84291 34852 ft 576 kts 52°
2026-05-07 01:04 41.38804 -72.75094 34838 ft 576 kts 52°
2026-05-07 01:04 41.42881 -72.65918 34857 ft 574 kts 52°
2026-05-07 01:05 41.46956 -72.56778 34854 ft 573 kts 52°
2026-05-07 01:05 41.51020 -72.47644 34846 ft 572 kts 52°
2026-05-07 01:06 41.55071 -72.38502 34845 ft 572 kts 52°
2026-05-07 01:06 41.59107 -72.29360 34839 ft 571 kts 52°
2026-05-07 01:07 41.63132 -72.20217 34846 ft 571 kts 52°
2026-05-07 01:07 41.67160 -72.11038 34846 ft 571 kts 53°
2026-05-07 01:08 41.71168 -72.01875 34846 ft 571 kts 53°
2026-05-07 01:08 41.75173 -71.92692 34841 ft 571 kts 53°
2026-05-07 01:08 41.81440 -71.80392 34815 ft 556 kts 39°
2026-05-07 01:09 41.92198 -71.68066 34851 ft 536 kts 27°
2026-05-07 01:09 41.98187 -71.61959 34855 ft 537 kts 27°
2026-05-07 01:10 42.04119 -71.55807 34848 ft 539 kts 28°
2026-05-07 01:10 42.10039 -71.49619 34846 ft 539 kts 28°
2026-05-07 01:11 42.15870 -71.43512 34831 ft 540 kts 28°
2026-05-07 01:11 42.21801 -71.37292 34837 ft 540 kts 28°
2026-05-07 01:12 42.26372 -71.32490 34839 ft 540 kts 28°
2026-05-07 01:12 42.39550 -71.18593 34811 ft 541 kts 29°
2026-05-07 01:13 42.63288 -70.93362 34811 ft 543 kts 30°
2026-05-07 01:13 42.73418 -70.77620 34796 ft 565 kts 52°
2026-05-07 01:13 42.81798 -70.59553 34800 ft 564 kts 52°
2026-05-07 01:14 42.98727 -70.23526 34804 ft 562 kts 53°
2026-05-07 01:14 43.15185 -69.88060 34801 ft 560 kts 54°
2026-05-07 01:15 43.31715 -69.52008 34801 ft 557 kts 55°
2026-05-07 01:15 43.48101 -69.15825 34825 ft 555 kts 56°
2026-05-07 01:16 43.61549 -68.85793 34825 ft 553 kts 56°
2026-05-07 01:16 43.80194 -68.43633 34822 ft 551 kts 57°
2026-05-07 01:17 43.95800 -68.07865 34840 ft 549 kts 58°
2026-05-07 01:17 44.08938 -67.77406 34850 ft 548 kts 58°
2026-05-07 01:18 44.24450 -67.41021 34861 ft 545 kts 59°
2026-05-07 01:18 44.39783 -67.04595 34873 ft 543 kts 60°
2026-05-07 01:19 44.56109 -66.69401 34893 ft 542 kts 57°
2026-05-07 01:19 44.72479 -66.34173 34903 ft 541 kts 57°
2026-05-07 01:20 44.88823 -65.98593 34904 ft 540 kts 58°
2026-05-07 01:20 45.05014 -65.62900 34928 ft 540 kts 59°
2026-05-07 01:21 45.21098 -65.26995 34959 ft 539 kts 59°
2026-05-07 01:21 45.37059 -64.90910 34952 ft 539 kts 59°
2026-05-07 01:22 45.52906 -64.54619 34940 ft 540 kts 60°
2026-05-07 01:22 45.68655 -64.18085 34944 ft 540 kts 60°
2026-05-07 01:23 45.84275 -63.81374 34957 ft 539 kts 60°
2026-05-07 01:23 45.99738 -63.44548 34968 ft 537 kts 61°
2026-05-07 01:24 46.14912 -63.07929 34982 ft 536 kts 62°
2026-05-07 01:24 46.29975 -62.71091 34976 ft 536 kts 62°
2026-05-07 01:25 46.44555 -62.34963 34986 ft 535 kts 62°
2026-05-07 01:25 46.59513 -61.97394 35030 ft 534 kts 62°
2026-05-07 01:26 46.74256 -61.59855 35014 ft 533 kts 62°
2026-05-07 01:26 46.88738 -61.22464 35009 ft 533 kts 62°
2026-05-07 01:27 47.03207 -60.84585 35030 ft 534 kts 62°
2026-05-07 01:27 47.17581 -60.46420 35034 ft 535 kts 62°
2026-05-07 01:28 47.31694 -60.08409 35051 ft 535 kts 62°
2026-05-07 01:28 47.46435 -59.70310 35049 ft 534 kts 55°
2026-05-07 01:29 47.62683 -59.34478 35104 ft 530 kts 56°
2026-05-07 01:29 47.78929 -58.97912 35125 ft 527 kts 56°
2026-05-07 01:30 47.94881 -58.61537 35124 ft 522 kts 56°
2026-05-07 01:30 48.10569 -58.25281 35141 ft 518 kts 56°
2026-05-07 01:31 48.26066 -57.88986 35139 ft 516 kts 57°
2026-05-07 01:31 48.41431 -57.52509 35155 ft 515 kts 57°
2026-05-07 01:32 48.56639 -57.15915 35143 ft 515 kts 57°
2026-05-07 01:32 48.71758 -56.79031 35139 ft 516 kts 57°
2026-05-07 01:33 48.86783 -56.41864 35136 ft 518 kts 57°
2026-05-07 01:33 48.92804 -56.26821 35132 ft 518 kts 57°
2026-05-07 01:34 48.96543 -56.17440 35132 ft 518 kts 57°
2026-05-07 01:34 49.00294 -56.07993 35134 ft 518 kts 57°
2026-05-07 01:35 49.03991 -55.98649 35134 ft 518 kts 57°
2026-05-07 01:35 49.07700 -55.89241 35130 ft 518 kts 57°
2026-05-07 01:36 49.11402 -55.79819 35130 ft 517 kts 57°
2026-05-07 01:36 49.15089 -55.70399 35125 ft 517 kts 57°
2026-05-07 01:37 49.18769 -55.60965 35123 ft 517 kts 57°
2026-05-07 01:37 49.22440 -55.51520 35124 ft 516 kts 57°
2026-05-07 01:38 49.26096 -55.42079 35124 ft 516 kts 57°
2026-05-07 01:38 49.29748 -55.32617 35095 ft 516 kts 57°
2026-05-07 01:39 49.33392 -55.23138 35100 ft 516 kts 57°
2026-05-07 01:39 49.37027 -55.13651 35098 ft 516 kts 57°
2026-05-07 01:40 49.40627 -55.04221 35113 ft 516 kts 57°
2026-05-07 01:40 49.44248 -54.94701 35096 ft 516 kts 57°
2026-05-07 01:41 49.47857 -54.85179 35091 ft 516 kts 57°
2026-05-07 01:41 49.51452 -54.75658 35097 ft 515 kts 57°
2026-05-07 01:42 49.55047 -54.66102 35094 ft 515 kts 58°
2026-05-07 01:42 49.58630 -54.56544 35097 ft 515 kts 58°
2026-05-07 01:43 49.62199 -54.46989 35106 ft 514 kts 58°
2026-05-07 01:43 49.65756 -54.37430 35100 ft 514 kts 58°
2026-05-07 01:44 49.69309 -54.27846 35105 ft 513 kts 58°
2026-05-07 01:44 49.72843 -54.18278 35114 ft 512 kts 58°
2026-05-07 01:45 49.76365 -54.08709 35109 ft 512 kts 58°
2026-05-07 01:45 49.79877 -53.99132 35114 ft 511 kts 58°
2026-05-07 01:46 49.83375 -53.89557 35116 ft 511 kts 58°
2026-05-07 01:46 49.86862 -53.79976 35122 ft 510 kts 58°
2026-05-07 01:47 49.90334 -53.70399 35122 ft 509 kts 58°
2026-05-07 01:47 49.93794 -53.60822 35124 ft 509 kts 58°
2026-05-07 01:48 49.97243 -53.51242 35114 ft 508 kts 58°
2026-05-07 01:48 50.00678 -53.41662 35128 ft 507 kts 58°
2026-05-07 01:49 50.04101 -53.32079 35123 ft 506 kts 58°
2026-05-07 01:49 50.07511 -53.22500 35128 ft 506 kts 58°
2026-05-07 01:50 50.10913 -53.12906 35127 ft 505 kts 58°
2026-05-07 01:50 50.14298 -53.03325 35125 ft 505 kts 58°
2026-05-07 01:51 50.17676 -52.93727 35124 ft 505 kts 59°
2026-05-07 01:51 50.21044 -52.84122 35126 ft 504 kts 59°
2026-05-07 01:52 50.24405 -52.74499 35124 ft 504 kts 59°
2026-05-07 01:52 50.27734 -52.64934 35122 ft 504 kts 59°
2026-05-07 01:53 50.31095 -52.55238 35129 ft 504 kts 59°
2026-05-07 01:53 50.34408 -52.45645 35128 ft 504 kts 59°
2026-05-07 01:54 50.37729 -52.35993 35131 ft 503 kts 59°
2026-05-07 01:54 50.41041 -52.26331 35137 ft 503 kts 59°
2026-05-07 01:55 50.44339 -52.16670 35131 ft 502 kts 59°
2026-05-07 01:55 50.47629 -52.07000 35130 ft 502 kts 59°
2026-05-07 01:56 50.50823 -51.97270 35129 ft 502 kts 63°
2026-05-07 01:56 50.53492 -51.87107 35125 ft 503 kts 66°
2026-05-07 01:57 50.56053 -51.76880 35139 ft 502 kts 66°
2026-05-07 01:57 50.58640 -51.66684 35138 ft 501 kts 65°
2026-05-07 01:58 50.61230 -51.56583 35140 ft 500 kts 65°
2026-05-07 01:58 50.63840 -51.46396 35145 ft 500 kts 65°
2026-05-07 01:59 50.65859 -51.38482 35138 ft 499 kts 65°